Location: Banska Bystrica
(48.7333°N, 19.1500°E)
Time: 01:03:06
(UTC+01:00)

ISS - Pass Details

Date: 30 January 2021
Orbit: 417 x 422 km, 51.6° (Epoch: 06 March)

Event Time Altitude Azimuth Distance (km) Brightness Sun altitude
Rises 17:14:17 0° 278° (W) 2,372 1.3 -6.3°
Reaches altitude 10° 17:16:26 10° 284° (WNW) 1,508 0.1 -6.6°
Maximum altitude 17:19:44 49° 1° (N) 554 -3.3 -7.1°
Enters shadow 17:23:02 10° 78° (ENE) 1,505 -1.6 -7.7°
